Starlink 32766

operational
NORAD ID: 62574 Int'l Des: 2025-006 Owner: SPXS Country: US Constellation: starlink
LEOCIRCULAR

About Starlink 32766

Description loading...

Live Position

Loading 3D Globe...

Upcoming Passes

Altitude History

Altitude vs Time

uPlot chart will show altitude changes over time

Two-Line Element Set

1 62574U 25006W 25346.53480960 .00028066 00000-0 10260-2 0 9995
2 62574 42.9959 64.7585 0001131 246.1437 113.9296 15.27564003 51530
Epoch: Dec 12, 2025 • Age: 25 hours

Current Status

Altitude 483.7 km
Velocity 7.62 km/s
Sub-Earth Point -5.38°S, 121.94°E
Launch Date Jan 10, 2025
Age 0.9 years
Type internet

Technical Details

Classification Payload
Mass 730.00 kg
Dry Mass 700.00 kg
Total Mass 730.00 kg
Length 0.30 m
Diameter 4.10 m
Span 29.00 m
Shape Box + pan
Manufacturer SPXS
Bus Type Starlink V2M
Phase Status In Orbit
Owner/State SPXS/US

Large Constellations

Loading constellations...